P/2017 S8 ( PanSTARRS )

Japanese version
Home page
Updated on March 4, 2018

---------------------------------------------------------------------

* Profile

Discovery Date September 30, 2017
Magnitude 20.2 mag
Discoverer Pan-STARRS 1 telescope (Haleakala)

* Pictures

* Orbital Elements

Epoch 2018 Feb. 11.0 TT = JDT 2458160.5
T 2018 Jan. 28.63269 TT                                 MPCW
q   1.6832586            (2000.0)            P               Q
n   0.21310771     Peri.  254.54946     +0.08972871     -0.99074246
a   2.7758965      Node   191.80708     +0.99160279     +0.07930288
e   0.3936162      Incl.   29.85932     -0.09312719     -0.11018364
P   4.62
From 154 observations 2017 Sept. 25-Nov. 23, mean residual 0".6.

* Magnitudes Graph

        m1 = 16.0 + 5 log d + 10.0 log r

---------------------------------------------------------------------

The orbital elements are published on M.P.E.C. 2018-D91.
The magnitudes graphs are made with Comet for Windows.

---------------------------------------------------------------------

Copyright(C) Seiichi Yoshida (comet@aerith.net). All rights reserved.